Regional Weather Roundup
Issued by NWS

Home | Current Version | Previous Version | Text Only | Print | Product List | Glossary Off
Versions: 1 2 3 4 5 6 7 8 9 10 11 12 13 14 15 16 17 18 19 20 21 22 23 24 25 26 27 28 29 30 31 32 33 34 35 36 37 38 39 40 41 42 43 44 45 46 47 48 49 50

000
ASUS43 KDTX 210010
RWRMI
MICHIGAN HOURLY REGIONAL WEATHER ROUNDUP
NATIONAL WEATHER SERVICE DETROIT/PONTIAC MI
700 PM EST SAT DEC 20 2014

NOTE: "FAIR" INDICATES FEW OR NO CLOUDS BELOW 12,000 FEET WITH NO
SIGNIFICANT WEATHER AND/OR OBSTRUCTION TO VISIBILITY.

MIZ047>049-052>055-059>063-066>070-074>076-081>083-210100-
SOUTHEAST LOWER MICHIGAN

CITY           SKY/WX    TMP DP  RH WIND       PRES   REMARKS
ADRIAN         CLOUDY    29  22  75 CALM      30.28R
6HR MIN TEMP:  29; 6HR MAX TEMP:  30;

ALMA           CLOUDY    26  23  89 CALM      30.28S
ANN ARBOR      CLOUDY    30  22  72 CALM      30.27S
BAD AXE        CLOUDY    27  23  85 CALM      30.29R
6HR MIN TEMP:  27; 6HR MAX TEMP:  31;

CARO           CLOUDY    28  23  81 CALM      30.28S
DETROIT CITY   CLOUDY    32  21  64 CALM      30.29S
6HR MIN TEMP:  31; 6HR MAX TEMP:  33;

DETROIT        CLOUDY    30  21  69 CALM      30.29S
6HR MIN TEMP:  30; 6HR MAX TEMP:  30;

FLINT          CLOUDY    31  21  66 CALM      30.28R
6HR MIN TEMP:  30; 6HR MAX TEMP:  32;

GROSSE ILE     CLOUDY    30  25  80 CALM      30.27S
HILLSDALE      MOCLDY    27  22  79 CALM      30.25R
6HR MIN TEMP:  27; 6HR MAX TEMP:  30;

HOWELL         CLOUDY    28  22  76 CALM      30.26S
6HR MIN TEMP:  28; 6HR MAX TEMP:  29;


CITY           SKY/WX    TMP DP  RH WIND       PRES   REMARKS
JACKSON        CLOUDY    28  21  75 CALM      30.26S
6HR MIN TEMP:  28; 6HR MAX TEMP:  30;

LAMBERTVILLE   CLOUDY    32  25  74 CALM      30.28S
LANSING        MOCLDY    28  20  71 CALM      30.28R
6HR MIN TEMP:  28; 6HR MAX TEMP:  30;

LAPEER         CLOUDY    29  23  79 CALM      30.28R
MASON          CLOUDY    28  22  78 CALM      30.27R
MONROE         CLOUDY    28  25  86 CALM      30.27S
MT. CLEMENS    CLOUDY    29  24  79 VRB2      30.27R
6HR MIN TEMP:  29; 6HR MAX TEMP:  31;

PONTIAC        CLOUDY    28  19  69 CALM      30.26R
6HR MIN TEMP:  28; 6HR MAX TEMP:  29;

PORT HOPE        N/A     28  20  71 VRB3      30.28R
6HR MIN TEMP:  28; 6HR MAX TEMP:  31;

PORT HURON     CLOUDY    28  23  80 CALM      30.29S
TRI CITIES     MOCLDY    28  22  78 CALM      30.29S
6HR MIN TEMP:  28; 6HR MAX TEMP:  32;

TROY           CLOUDY    32  20  62 CALM      30.29S
SAGINAW HB     MOCLDY    30  23  74 CALM      30.29R
$$
MIZ043>046-050>051-056>058-064>065-071>073-077>080-210100-
SOUTHWEST LOWER MICHIGAN

CITY           SKY/WX    TMP DP  RH WIND       PRES   REMARKS
BATTLE CREEK   CLOUDY    30  23  75 CALM      30.26S
6HR MIN TEMP:  29; 6HR MAX TEMP:  33;

BENTON HARBOR  CLOUDY    32  26  78 S5        30.27R WCI  27
6HR MIN TEMP:  31; 6HR MAX TEMP:  32;

BIG RAPIDS     CLOUDY    30  26  84 CALM      30.24S
6HR MIN TEMP:  28; 6HR MAX TEMP:  30;

COLDWATER      CLOUDY    30  25  83 CALM      30.26S
6HR MIN TEMP:  30; 6HR MAX TEMP:  32;

FREMONT        LGT SNOW  28  28  99 SE3       30.25S
HOLLAND        LGT SNOW  31  27  85 SE6       30.27S FOG     WCI  25
6HR MIN TEMP:  30; 6HR MAX TEMP:  31; 6HR PCP: TRACE;

GRAND RAPIDS   LGT SNOW  30  25  81 SW3       30.26S
6HR MIN TEMP:  30; 6HR MAX TEMP:  33; 6HR PCP: TRACE;

IONIA          CLOUDY    30  25  84 SE3       30.26S
KALAMAZOO      CLOUDY    30  27  88 CALM      30.26F FOG
6HR MIN TEMP:  30; 6HR MAX TEMP:  31; 6HR PCP: TRACE;

LUDINGTON      CLOUDY    31  27  84 E5        30.26S WCI  26
6HR MIN TEMP:  28; 6HR MAX TEMP:  31;

MARSHALL       CLOUDY    27  22  82 CALM      30.26S
MOUNT PLEASANT MOCLDY    26  23  89 CALM      30.27R
6HR MIN TEMP:  26; 6HR MAX TEMP:  30;

MUSKEGON       LGT SNOW  30  25  81 SE7       30.26F WCI  23
6HR MIN TEMP:  28; 6HR MAX TEMP:  30; 6HR PCP: TRACE;

SOUTH HAVEN    CLOUDY    32  28  86 CALM      30.27R
$$
MIZ016>042-210100-
NORTHERN LOWER MICHIGAN

CITY           SKY/WX    TMP DP  RH WIND       PRES   REMARKS
ALPENA         CLOUDY    25  21  85 CALM      30.28S
6HR MIN TEMP:  24; 6HR MAX TEMP:  30;

BEAVER ISLAND  CLOUDY    29  25  86 CALM      30.25S
6HR MIN TEMP:  28; 6HR MAX TEMP:  30;

BELLAIRE       CLOUDY    28  23  80 CALM      30.27S
6HR MIN TEMP:  28; 6HR MAX TEMP:  30;

CADILLAC       CLOUDY    26  21  82 E5        30.22S WCI  20
CHARLEVOIX     CLOUDY    28  24  85 SE3       30.28S
6HR MIN TEMP:  27; 6HR MAX TEMP:  28;

FRANKFORT      CLOUDY    29  25  84 CALM      30.25S
GAYLORD        CLOUDY    23  19  85 S3        30.22F
6HR MIN TEMP:  23; 6HR MAX TEMP:  26;

GRAYLING       CLOUDY    19  17  95 CALM      30.25S
6HR MIN TEMP:  18; 6HR MAX TEMP:  26;

HARBOR SPRINGS CLOUDY    26  20  79 E3        30.26S
HOUGHTON LAKE  CLOUDY    21  17  84 CALM      30.25S
6HR MIN TEMP:  20; 6HR MAX TEMP:  26;

MANISTEE       CLOUDY    28  21  74 SE5       30.26S WCI  23
OSCODA         CLOUDY    25  22  90 CALM      30.28S
PELLSTON       CLOUDY    19  16  88 CALM      30.27S
6HR MIN TEMP:  19; 6HR MAX TEMP:  27;

ROGERS CITY    MOCLDY    24  20  85 CALM      30.29S
TRAVERSE CITY  CLOUDY    30  22  72 SE3       30.25S
6HR MIN TEMP:  30; 6HR MAX TEMP:  31;

$$
MIZ007>008-015-210100-
EASTERN UPPER MICHIGAN

CITY           SKY/WX    TMP DP  RH WIND       PRES   REMARKS
KINROSS        CLOUDY    25  21  86 E6        30.26F WCI  18
6HR MIN TEMP:  25; 6HR MAX TEMP:  28;

MACKINAC ISLAN MOCLDY    23  20  89 SE3       30.26S
6HR MIN TEMP:  23; 6HR MAX TEMP:  28;

NEWBERRY       CLOUDY    24  22  93 SE6       30.23S WCI  17
6HR MIN TEMP:  24; 6HR MAX TEMP:  28;

S. S. MARIE    CLOUDY    24  17  74 SE3       30.30R
6HR MIN TEMP:  23; 6HR MAX TEMP:  25;

MUNISING         N/A     30  22  72 S7        30.22S WCI  23
6HR MIN TEMP:  29; 6HR MAX TEMP:  32;

$$
MIZ004>006-011>014-085-210100-
CENTRAL UPPER MICHIGAN

CITY           SKY/WX    TMP DP  RH WIND       PRES   REMARKS
MANISTIQUE     PTCLDY    27  25  90 CALM      30.23F
6HR MIN TEMP:  27; 6HR MAX TEMP:  31;

ESCANABA       CLOUDY    28  21  74 CALM      30.23S
6HR MIN TEMP:  27; 6HR MAX TEMP:  28;

MENOMINEE      CLOUDY    28  25  86 SE3       30.22F
6HR MIN TEMP:  27; 6HR MAX TEMP:  30;

SAWYER-GWINN   CLOUDY    27  23  86 S6        30.18S WCI  20
$$
MIZ001>003-009>011-084-210100-
WESTERN UPPER MICHIGAN

CITY           SKY/WX    TMP DP  RH WIND       PRES   REMARKS
IRON MOUNTAIN  CLOUDY    27  23  85 SE5       30.17F WCI  22
6HR MIN TEMP:  26; 6HR MAX TEMP:  29;

HOUGHTON       CLOUDY    27  23  85 S3        30.14S
6HR MIN TEMP:  24; 6HR MAX TEMP:  27;

COPPER HARBOR    N/A     29  24  82 SW7       30.17S WCI  22
6HR MIN TEMP:  28; 6HR MAX TEMP:  32;

IRONWOOD       CLOUDY    30  27  86 SE6       30.10S WCI  24
6HR MIN TEMP:  28; 6HR MAX TEMP:  32;

$$

ABBREVIATIONS USED IN REMARKS
   TC - TEMPERATURE IN CELSIUS
  WCI - WIND CHILL INDEX
   HX - HEAT INDEX
  VSB - VISIBILITY



USA.gov is the U.S. government's official web portal to all federal, state and local government web resources and services.